Regional Weather Roundup
Issued by NWS State College, PA

Home | Current Version | Previous Version | Text Only | Print | Product List | Glossary On
Versions: 1 2 3 4 5 6 7 8 9 10 11 12 13 14 15 16 17 18 19 20 21 22 23 24 25 26 27 28 29 30 31 32 33 34 35 36 37 38 39 40 41 42 43 44 45 46 47 48 49 50
000
ASUS41 KCTP 260810
RWRCTP
NATIONAL WEATHER SERVICE STATE COLLEGE PA
400 AM EDT TUE SEP 26 2017

Note: "fair" indicates few or no clouds below 12,000 feet with no
significant weather and/or obstructions to visibility.

* = STATION THAT DOES NOT REPORT PRECIPITATION /E.G. RAIN...SNOW...ETC/
    THUNDER OR FOG.

PAZ002>004-007>009-013>016-020>023-029>032-260900-
WESTERN PENNSYLVANIA

CITY           SKY/WX    TMP DP  RH WIND       PRES   REMARKS
ERIE           MOCLDY    72  65  78 S5        30.01S
MEADVILLE      MOCLDY    67  65  93 CALM      30.06S
FRANKLIN*        N/A     64  64 100 CALM      30.07S VSB 1/4
NEW CASTLE     FAIR      63  63 100 CALM      30.05S FOG
BEAVER COUNTY  NOT AVBL
BUTLER*        PTCLDY    65  63  93 CALM      30.06R
PITTSBURGH INT MOCLDY    68  64  87 CALM      30.04S
PITTSBURGH     MOCLDY    71  65  81 CALM      30.04R
INDIANA*       PTCLDY    64  64 100 CALM      30.09R
LATROBE        MOCLDY    64  64 100 CALM      30.05S FOG
WASHINGTON CO* PTCLDY    61  59  94 CALM      30.04S VSB 1
$$

PAZ004>006-010>012-017>019-024>028-033>037-041-042-045-046-049>053-260900-
CENTRAL PENNSYLVANIA

CITY           SKY/WX    TMP DP  RH WIND       PRES   REMARKS
BRADFORD       PTCLDY    62  62 100 CALM      30.10R
DUBOIS         PTCLDY    66  62  87 N3        30.08R
CLEARFIELD     PTCLDY    63  63 100 N3        30.08R FOG
JOHNSTOWN      CLEAR     68  63  84 S6        30.09S
ALTOONA        FOG       63  63 100 CALM      30.06F VSB 1/2
STATE COLLEGE  PTCLDY    65  64  98 CALM      30.06R FOG
WILLIAMSPORT   PTCLDY    68  67  96 CALM      30.03R
SELINSGROVE    PTCLDY    63  63 100 CALM      30.04S FOG
FT INDIANTOWN  PTCLDY    66  66 100 NE3       30.02S FOG
CAPITAL CITY   CLEAR     69  66  90 CALM      30.03S
HARRISBURG     PTCLDY    71  69  93 CALM      30.02S
YORK           PTCLDY    63  63 100 CALM      30.03S FOG
$$

PAZ038>040-043-044-047-048-054-055-060>062-067>071-260900-
EASTERN PENNSYLVANIA

CITY           SKY/WX    TMP DP  RH WIND       PRES   REMARKS
SCRANTON       PTCLDY    68  65  90 E3        30.06S
MOUNT POCONO   PTCLDY    60  60 100 CALM      30.10S
ALLENTOWN      MOCLDY    66  63  90 CALM      30.05S
QUAKERTOWN*    MOSUNNY   64  64 100 CALM      30.06S
READING        PTCLDY    68  67  96 N3        30.03S
LANCASTER      PTCLDY    68  67  96 NE3       30.03F
COATESVILLE    MOSUNNY   66  66 100 N5        30.05S
POTTSTOWN      PTCLDY    65  64  97 CALM      30.06S
BLUE BELL      MOCLDY    63  63 100 CALM      30.05S
DOYLESTOWN     MOCLDY    64  63  96 N3        30.04S
WILLOW GROVE   NOT AVBL
NORTH PHILA    CLOUDY    69  65  86 N8        30.04S
PHILADELPHIA   MOCLDY    68  64  87 NE3       30.01F
$$



USA.gov is the U.S. government's official web portal to all federal, state and local government web resources and services.